Regional Weather Roundup
Issued by NWS Cleveland, OH

Home | Current Version | Previous Version | Graphics & Text | Print | Product List | Glossary On
Versions: 1 2 3 4 5 6 7 8 9 10 11 12 13 14 15 16 17 18 19 20 21 22 23 24 25 26 27 28 29 30 31 32 33 34 35 36 37 38 39 40 41 42 43 44 45 46 47 48 49 50
000
ASUS41 KCLE 280200
RWRCLE
OHIO REGIONAL WEATHER ROUNDUP
NATIONAL WEATHER SERVICE WILMINGTON, OH
1000 PM EDT WED JUL 27 2016

NOTE: "FAIR" INDICATES FEW OR NO CLOUDS BELOW 12,000 FEET WITH NO
SIGNIFICANT WEATHER AND/OR OBSTRUCTIONS TO VISIBILITY.

OHZ001>008-015>018-024>027-034-035-043-044-280300-
   NORTHWEST OHIO

CITY           SKY/WX    TMP DP  RH WIND       PRES   REMARKS
DEFIANCE       MOCLDY    80  65  59 CALM      29.94R
FINDLAY        FAIR      82  58  43 NE5       29.94R
TOLEDO EXPRESS NOT AVBL
TOLEDO EXEC    FAIR      80  65  59 SE3       29.94R
LIMA           FAIR      77  69  76 S3        29.95R
$$

OHZ009>014-019>023-028>033-038-089-280300-
   NORTHEAST OHIO

CITY           SKY/WX    TMP DP  RH WIND       PRES   REMARKS
CLE-HOPKINS    FAIR      81  57  43 E6        29.95F
CLE-LAKEFRONT  FAIR      82  59  45 E3        29.92F
CUY CO. ARPT   CLEAR    N/A N/A N/A CALM      29.95F
LORAIN-ELYRIA  FAIR      73  59  61 S3        29.95R
ASHTABULA      FAIR      69  65  86 CALM      29.97S
AKRON-CANTON   FAIR      77  60  55 NE8       29.96R
WOOSTER        NOT AVBL
MANSFIELD      FAIR      77  62  59 NE3       29.97R
YOUNGSTOWN     FAIR      74  62  66 NE6       29.97R
$$

OHZ042-051>053-060>062-070>072-077>081-280300-
  SOUTHWEST OHIO

CITY           SKY/WX    TMP DP  RH WIND       PRES   REMARKS
CINC-COVINGTON MOCLDY    81  72  74 CALM      29.95R
CINC-LUNKEN    FAIR      77  75  93 CALM      29.94R
HAMILTON       FAIR      77  71  82 CALM      29.94R
DAYTON         NOT AVBL
WRIGHT-PAT AFB CLOUDY    82  68  63 CALM      29.94R
DAYTON GENERAL FAIR      82  65  56 NW5       29.95R
WILMINGTON     FAIR      77  73  87 S3        29.95R
$$

OHZ036-037-039>041-045>050-054>059-063>069-073>076-082>088-280300-
  CENTRAL AND SOUTHEAST OHIO

CITY           SKY/WX    TMP DP  RH WIND       PRES   REMARKS
COLUMBUS       MOCLDY    82  65  56 CALM      29.93R
OSU AIRPORT    FAIR      79  66  64 CALM      29.94R
BOLTON FIELD   NOT AVBL
RICKENBACK AFB FAIR      78  70  78 CALM      29.93R
NEWARK         CLOUDY    77  71  82 CALM      29.94R
MARION         FAIR      76  64  66 CALM      29.96R
LANCASTER      FAIR      75  73  93 CALM      29.95R
ZANESVILLE     FAIR      81  68  64 CALM      29.94R
NEW PHILLY     FAIR      79  61  53 CALM      29.95R
$$




USA.gov is the U.S. government's official web portal to all federal, state and local government web resources and services.